Location: Unspecified
(0.0000°N, 0.0000°E)
Time: 07:55:42
(UTC+00:00)

TET - Visible Passes

Search period start: 19 January 2019 00:00
Search period end: 29 January 2019 00:00
Orbit: 420 x 420 km, 97.6° (Epoch: 19 January)

Date Brightness Start Highest point End Pass type
(mag) Time Alt. Az. Time Alt. Az. Time Alt. Az.
19 Jan 5.2 05:03:06 10° N 05:06:16 58° WNW 05:09:26 10° SSW visible
20 Jan 8.1 04:20:04 10° NE 04:22:24 19° ESE 04:24:43 10° SSE visible
21 Jan 5.4 05:07:18 10° N 05:10:23 48° WNW 05:13:30 10° SSW visible
22 Jan 7.9 04:24:00 10° NE 04:26:31 21° ESE 04:29:03 10° SSE visible
23 Jan 5.6 05:11:29 10° N 05:14:31 40° W 05:17:34 10° SSW visible
24 Jan 7.6 04:27:57 10° NE 04:30:37 24° E 04:33:19 10° SSE visible
25 Jan 5.8 05:15:39 10° NNW 05:18:37 34° WNW 05:21:35 10° SW visible
26 Jan 7.4 04:31:54 10° NE 04:34:43 28° ESE 04:37:33 10° SSE visible
27 Jan 6.1 05:19:51 10° NNW 05:22:42 30° W 05:25:34 10° SW visible
28 Jan 7.0 04:35:53 10° NE 04:38:49 33° ESE 04:41:44 10° SSE visible
